SCP
0 0 0 0 0 0 0 0 0 0 0 0 0 0 0 0 0 0 0 0 0 0 0 0 0 0 0 0 0 0 0 0 0 0 0 0 0 0 0 0 0 0 0 0
0 0 0 0 0 0 0 0 0 0 0 0 0 0 0 0 0 0 0 0 0 0 0 0 0 0 0 0 0 0 0 0 0 0 0 0 0 0 0 0 0 0 0 0
0 0 0 0 0 0 0 0 0 0 0 0 0 0 0 -0 0 0 0 0 0 0 0 0 0 0 0 0 0 0 0 0 0 0 0 0 0 0 0 0 0 0 0 0
0 0 0 0 0 0 0 0 0 0 0 0 0 0 -0 -0 0 0 0 0 0 0 0 0 0 0 0 0 0 0 0 0 0 0 0 0 0 0 0 0 0 0 0 0
0 0 0 0 0 0 0 0 0 0 0 0 0 0 -0 -0 -0 0 0 0 0 0 0 0 0 0 0 0 0 0 0 0 0 0 0 0 0 0 0 0 0 0 0 0
0 0 0 0 0 0 0 0 0 0 0 0 0 0 -0 -0 0 0 0 0 0 0 0 0 0 0 0 0 0 0 0 0 0 0 0 0 0 0 0 0 0 0 0 0
0 0 0 0 0 0 0 0 0 0 0 0 0 -0 -0 0 0 0 0 0 0 0 0 0 0 -0 -0 -0 0 0 0 0 0 0 0 0 0 0 0 0 0 0 0 0
0 0 0 0 0 0 0 0 0 0 0 0 0 -0 -0 0 0 0 0 0 0 -0 -0 -0 0 0 0 0 0 0 0 0 0 0 0 0 0 0 0 0 0 0 0 0
0 0 0 0 0 0 0 0 -0 -0 0 0 0 0 0 0 0 0 0 -0 -0 -0 -0 -0 0 0 0 0 0 0 0 0 0 0 0 0 0 0 0 0 0 0 0 0
0 0 0 0 0 0 0 0 0 0 0 0 0 0 0 0 0 0 0 0 0 0 0 -0 0 0 0 0 0 0 0 0 0 0 0 0 0 0 0 0 0 0 0 0
0 0 0 0 0 0 0 0 0 0 0 0 0 0 0 0 0 0 0 0 0 0 0 0 0 0 0 0 0 0 0 0 0 0 0 0 0 0 0 0 0 0 0 0
0 0 0 0 0 0 0 0 0 0 0 0 0 0 0 0 0 0 0 0 0 0 0 0 0 0 0 0 0 0 0 0 0 0 0 0 0 0 0 0 0 0 0 0
0 0 0 0 0 0 0 0 0 0 0 0 0 0 0 0 0 0 0 0 0 0 0 0 0 0 0 0 0 0 0 0 0 0 0 0 0 0 0 0 0 0 0 0
0 0 0 0 0 0 0 0 0 0 0 0 0 0 0 0 0 0 0 0 0 0 0 0 0 0 0 0 0 0 0 0 0 0 0 0 0 0 0 0 0 0 0 0
0 0 0 0 0 0 0 0 0 0 0 0 0 0 0 0 0 0 0 0 0 0 0 0 0 0 0 0 0 0 0 0 0 0 0 0 0 0 0 0 0 0 0 0
0 0 0 0 0 0 0 0 0 0 0 0 0 0 0 0 0 0 0 0 0 0 0 0 0 0 0 0 0 0 0 0 0 0 0 0 0 0 0 0 0 0 0 0
0 0 0 0 0 0 0 0 0 0 0 0 0 0 0 0 0 0 0 0 0 0 -0 0 0 0 0 0 0 0 0 0 0 0 0 0 0 0 0 0 0 0 0 0
0 0 0 0 0 0 0 0 0 0 0 0 0 0 0 0 0 0 0 0 0 -0 0 0 0 0 0 0 0 0 0 0 0 0 0 0 0 0 0 0 0 0 0 0
0 0 0 0 0 0 0 0 0 0 0 0 0 0 0 0 0 0 0 0 0 0 0 0 0 0 0 0 0 0 0 0 0 0 0 0 0 0 0 0 0 0 0 0
0 0 0 0 0 0 0 0 0 0 0 0 0 0 0 0 0 0 0 0 0 0 0 0 0 0 0 0 0 0 0 0 0 0 0 0 0 0 0 0 0 0 0 0
0 0 0 0 0 0 0 0 0 0 0 0 0 0 0 0 0 0 0 0 0 0 0 0 0 0 0 0 0 0 0 0 0 0 0 0 0 0 0 0 0 0 0 0
0 0 0 0 0 0 0 0 0 0 0 0 0 0 0 0 0 0 0 0 0 0 0 0 0 0 0 0 0 0 0 0 0 0 0 0 0 0 0 0 0 0 0 0
0 0 0 0 0 0 0 0 0 0 0 0 0 0 0 0 -0 -0 -0 0 0 0 0 0 0 0 0 0 0 0 0 0 0 0 0 0 0 0 0 0 0 0 0 0
0 0 0 0 0 0 0 0 0 0 0 0 0 0 0 0 0 0 0 0 0 0 0 0 0 0 0 0 0 0 0 0 0 0 0 0 0 0 0 0 0 0 0 0
0 0 0 0 0 0 0 0 0 0 0 0 0 0 0 0 0 0 0 0 0 0 0 0 0 0 0 0 0 0 0 0 0 0 0 0 0 0 0 0 0 0 0 0
0 0 0 0 0 0 0 0 0 0 0 0 0 0 0 0 0 0 0 0 0 0 0 0 0 0 0 0 0 0 0 0 0 0 0 0 0 0 0 0 0 0 0 0
0 0 0 0 0 0 0 0 0 0 0 0 0 0 0 0 0 0 0 0 0 0 0 0 0 0 0 0 0 0 0 0 0 0 0 0 0 0 0 0 0 0 0 0
Wind_Speed
8 7 6 8 8 8 10 9 8 7 6 5 3 3 2 2 2 2 2 2 3 2 2 2 2 1 1 1 1 1 1 2 3 3 2 2 3 3 3 3 4 4 4 4
7 7 7 10 11 11 11 11 11 10 10 5 1 0 1 2 2 2 3 3 2 2 2 2 2 2 1 1 1 1 2 2 2 2 2 2 3 3 3 3 4 4 4 4
5 3 5 11 10 12 8 8 7 10 8 2 1 1 2 2 2 2 2 2 2 2 2 2 2 2 2 2 1 1 2 2 2 2 2 3 3 3 4 4 4 4 4 5
4 3 10 7 1 5 7 7 7 6 3 1 1 2 2 1 2 2 2 2 2 2 2 2 1 1 1 1 1 2 2 2 2 2 3 3 3 4 4 4 4 4 5 5
3 6 10 5 3 3 4 6 6 7 4 2 0 1 2 1 1 1 2 1 2 2 2 2 2 1 1 1 2 2 3 3 2 2 3 3 4 4 4 3 4 4 4 5
5 6 8 3 2 2 2 5 2 3 3 2 2 1 3 1 1 0 1 1 1 1 0 1 2 1 1 2 2 3 3 2 2 2 3 4 4 4 4 3 4 5 5 5
8 8 8 1 3 4 4 4 1 2 2 3 4 4 1 1 1 1 0 0 1 1 1 2 1 1 2 2 3 3 2 2 3 3 4 4 4 4 4 4 4 5 6 6
7 8 9 3 4 5 4 1 1 1 1 1 1 0 1 0 0 0 0 1 0 1 1 1 1 1 2 3 3 1 2 3 4 4 3 3 4 4 4 4 5 5 5 6
8 8 2 5 3 2 0 0 0 0 1 0 1 1 1 1 1 2 2 2 1 1 1 1 1 2 3 3 2 2 2 3 4 4 4 4 4 4 4 4 4 4 4 5
5 5 3 4 3 2 2 1 1 1 1 2 3 3 2 2 2 2 2 2 1 1 2 2 2 2 2 2 2 2 3 4 4 4 4 4 3 3 3 4 4 4 5 5
7 5 5 4 4 3 2 1 1 2 2 3 3 3 3 3 3 3 2 2 2 2 3 3 2 2 2 2 2 3 4 4 4 4 4 4 4 4 4 5 5 6 5 5
8 5 4 4 2 2 2 3 3 3 3 3 3 3 3 3 3 3 2 2 2 2 2 3 2 2 3 2 2 3 3 4 3 3 3 3 4 5 7 9 11 12 12 10
8 5 4 4 3 2 2 3 2 3 3 3 3 3 3 3 3 2 2 2 3 3 3 3 3 3 3 3 3 4 4 4 3 3 3 3 4 4 6 7 9 12 13 14
4 4 5 4 3 2 2 2 2 2 3 3 3 3 3 3 3 3 3 3 3 3 3 3 4 4 4 3 3 4 5 5 5 4 4 4 4 5 5 6 6 6 8 12
4 3 4 3 2 2 2 2 2 3 3 3 3 3 3 3 4 4 4 3 3 4 4 4 5 5 4 3 3 4 4 4 4 4 4 4 5 5 5 6 6 7 6 7
3 3 3 4 4 4 3 3 4 4 4 4 4 4 4 5 5 5 4 4 4 5 5 5 5 5 4 3 4 4 4 7 6 4 4 5 5 5 6 6 6 6 7 6
3 4 4 4 5 5 5 5 5 5 5 5 5 4 4 4 4 5 5 5 5 6 5 5 6 5 4 4 4 4 4 5 8 5 5 5 5 6 6 6 6 7 7 8
4 4 4 4 4 5 5 4 5 5 5 5 4 4 4 5 6 6 5 4 4 5 6 6 6 5 5 5 4 4 4 4 4 5 5 5 6 5 6 6 7 8 7 7
3 3 3 4 4 4 4 4 4 4 5 4 4 5 5 5 5 5 5 4 5 7 7 6 7 6 6 6 6 4 5 5 5 5 5 8 8 6 6 6 7 7 7 6
2 3 3 3 3 4 4 5 5 4 4 4 4 4 5 5 5 5 5 6 6 6 6 6 5 5 6 6 7 4 5 6 6 6 5 6 6 7 6 7 7 7 7 6
3 3 3 4 4 4 4 4 4 4 4 4 5 5 6 6 5 5 5 6 7 6 6 8 5 5 5 6 7 4 5 5 6 6 6 6 6 7 7 7 7 7 6 6
3 3 4 4 4 4 4 3 3 4 4 4 4 5 5 6 6 6 7 7 7 8 5 4 5 7 8 7 4 5 5 6 6 6 6 6 7 7 7 7 7 7 6 6
3 4 4 4 4 4 4 3 4 4 5 5 5 6 6 6 5 5 7 5 5 8 6 5 7 11 12 7 5 5 6 7 7 7 7 7 7 7 7 7 7 6 6 6
4 4 5 4 4 4 5 6 5 4 5 6 6 6 6 5 6 6 6 8 9 9 6 7 11 13 12 5 5 5 6 7 7 7 7 6 6 6 6 7 7 6 6 7
5 5 5 5 5 5 6 6 5 5 5 5 6 6 5 5 6 6 5 6 9 9 6 8 13 13 8 5 5 6 6 7 7 6 6 6 6 6 6 6 6 6 6 6
5 5 5 6 5 5 4 4 4 4 4 5 5 4 4 4 5 5 5 6 8 10 7 6 6 8 5 5 6 6 6 7 8 7 7 6 7 7 6 6 7 6 6 6
5 5 5 5 5 5 4 4 5 5 5 5 6 5 5 4 5 5 6 6 5 6 6 6 5 5 5 6 6 6 6 6 6 6 6 6 6 6 6 7 6 6 5 5
Wind_Direction
265 273 267 258 249 231 224 225 235 257 264 262 234 208 202 189 178 158 159 162 167 167 166 163 164 165 162 174 169 175 209 231 238 243 250 252 255 256 252 246 246 244 244 244
270 252 255 262 252 239 239 238 245 264 273 269 265 147 192 190 189 195 194 183 174 172 169 174 179 183 194 198 193 196 229 244 246 250 258 257 258 263 263 257 255 253 251 247
269 255 286 263 235 215 219 217 218 235 245 255 267 247 231 218 209 209 203 180 181 195 196 197 200 198 214 214 203 218 240 251 252 252 259 264 265 264 265 262 258 254 253 251
273 289 249 243 182 190 208 230 226 238 247 240 246 257 241 201 207 213 191 181 192 200 206 211 205 214 212 206 219 234 248 257 255 255 262 265 265 260 257 256 257 256 255 252
240 256 269 252 206 179 197 248 228 230 238 239 175 348 288 253 198 203 190 185 189 192 198 196 201 206 193 224 237 245 252 258 263 263 269 268 264 264 261 260 262 259 258 256
227 241 251 256 146 120 124 260 223 198 213 195 116 229 258 336 39 75 129 115 135 151 166 210 224 188 193 234 238 243 246 255 264 258 257 261 264 269 268 263 261 263 264 258
231 243 260 249 135 122 184 242 158 171 197 193 199 216 218 62 37 44 80 148 151 171 217 230 219 176 220 242 243 242 242 256 259 253 252 255 262 266 267 268 269 268 268 265
210 228 247 156 146 185 212 127 89 95 174 185 197 214 356 18 310 300 269 236 195 207 246 248 223 212 242 252 253 249 250 258 258 253 253 256 258 265 265 266 267 269 269 271
203 220 237 164 183 215 101 102 89 196 291 217 244 255 258 252 251 251 243 234 220 221 250 256 232 212 242 257 251 251 256 260 260 259 255 250 250 258 264 263 261 265 266 271
255 246 240 227 235 250 246 231 244 252 265 251 251 248 255 259 257 254 247 240 229 229 247 260 254 243 246 256 250 246 255 262 261 260 262 259 253 250 252 257 263 266 267 270
257 264 276 260 249 248 249 244 269 271 258 255 255 262 264 268 266 254 248 243 233 232 243 255 260 263 264 254 247 254 260 262 266 263 261 263 260 252 253 248 246 257 260 262
249 240 238 259 272 250 249 251 251 258 264 260 248 261 268 264 260 254 248 245 252 252 254 262 266 270 268 258 247 251 262 266 265 267 266 266 274 280 263 256 265 264 262 262
257 275 281 287 291 283 251 252 251 250 254 265 263 258 261 262 262 259 251 242 247 251 253 258 260 262 261 258 251 251 255 263 265 265 264 269 274 277 287 285 269 267 267 268
271 280 280 278 275 273 267 266 263 262 260 259 260 257 256 261 263 253 245 241 245 252 253 251 251 257 255 249 248 253 258 261 262 259 259 263 267 269 272 281 291 287 275 271
264 255 259 276 281 278 270 260 261 262 261 258 250 245 244 244 247 249 249 243 243 246 248 248 252 259 256 246 248 256 259 261 260 260 260 260 262 266 268 271 274 280 285 282
263 259 252 252 254 258 252 242 243 251 252 252 246 239 236 238 244 248 245 233 233 242 246 247 254 258 250 243 250 255 255 261 265 266 266 267 266 266 267 268 271 274 276 277
242 245 244 249 251 253 243 236 238 244 249 249 247 242 238 240 245 246 243 237 236 242 243 244 252 257 249 242 243 249 252 260 265 266 261 263 266 267 267 268 270 272 271 273
238 241 241 243 247 254 254 249 248 248 247 248 248 243 239 238 242 248 249 247 252 259 254 246 247 251 248 243 240 242 247 254 256 258 262 265 268 265 267 269 271 273 276 279
258 262 260 255 252 250 251 253 256 255 253 247 241 241 243 246 248 251 254 251 253 262 264 251 249 248 248 246 244 239 243 251 257 258 258 270 274 267 266 267 270 272 274 277
268 268 270 272 264 249 247 249 251 251 246 237 238 244 250 253 249 250 251 252 248 249 255 256 252 248 246 246 244 238 242 249 256 261 261 261 265 269 268 268 269 271 273 273
279 276 270 266 264 258 249 247 245 247 247 234 232 240 248 253 249 245 249 265 266 254 254 257 252 248 245 245 245 238 241 248 253 257 260 263 266 269 269 268 269 271 272 273
279 274 270 267 267 273 269 256 246 248 253 251 247 247 252 258 258 255 246 249 262 264 260 253 249 250 253 253 240 240 245 250 255 256 257 259 263 267 269 268 268 270 271 270
271 269 267 262 260 267 277 270 259 255 254 252 250 250 251 253 249 254 269 262 255 262 260 253 257 261 265 260 247 247 251 254 256 256 257 258 260 263 266 267 268 270 271 270
274 272 269 269 270 272 272 269 260 255 253 255 252 248 249 259 263 252 252 268 270 271 263 264 270 272 274 261 251 251 253 255 256 255 256 259 259 260 262 265 268 269 269 268
271 272 271 269 265 262 262 263 264 260 258 260 259 253 245 240 250 263 261 262 268 274 270 272 276 278 272 256 253 254 255 255 257 257 255 257 259 261 263 264 265 268 268 267
263 263 261 256 254 258 259 259 261 262 261 267 269 261 254 252 253 259 262 261 262 270 269 267 267 269 260 255 255 256 257 265 270 265 260 259 260 261 262 263 264 265 265 266
265 263 265 267 265 257 253 252 257 261 259 262 271 271 266 265 265 265 266 266 266 266 265 265 262 259 259 258 259 259 259 259 259 259 260 260 261 261 262 262 264 265 265 265